Rogers, AR

6:26 AM CDT on August 26, 2016 (GMT -0500)
Rogers Municipal-Carter

Weather History for KROG - January, 2014

Change the Weather History Date:

Saturday, January 25, 2014

  Actual Average Record
Temperature  
Mean Temperature 44 °F -  
Max Temperature 55 °F 43 °F 68 °F (2005)
Min Temperature 32 °F 26 °F 15 °F (1997)
Degree Days  
Heating Degree Days 22    
Moisture  
Dew Point 22 °F    
Average Humidity 48    
Maximum Humidity 82    
Minimum Humidity 32    
Precipitation  
Precipitation 0.00 in - - ()
Sea Level Pressure  
Sea Level Pressure 30.00 in    
Wind  
Wind Speed 12 mph (West)    
Max Wind Speed 22 mph    
Max Gust Speed 28 mph    
Visibility 10 miles    
Events      
Averages and records for this station are not official NWS values.
T = Trace of Precipitation, MM = Missing Value Source: NWS Daily Summary

Daily Weather History Graph

Daily Weather History Graph

Search for Another Location

Airport or City:

Trip Planner

Search our weather history database for the weather conditions in past years. The results will help you decide how hot, cold, wet, or windy it might be!

Date:

Astronomy

Jan. 25, 2014 Rise Set
Actual Time 7:22 AM CST 5:35 PM CST
Civil Twilight 6:55 AM CST 6:02 PM CST
Nautical Twilight 6:24 AM CST 6:33 PM CST
Astronomical Twilight 5:53 AM CST 7:04 PM CST
Moon 1:56 AM CST (1/25) 12:36 PM CST (1/25)
Length of Visible Light 11h 07m
Length of Day
10h 12m
Waning Crescent, 34% of the Moon is Illuminated
Jan 25
Waning Crescent
Jan 30
New
Feb 6
First Quarter
Feb 14
Full
Feb 22
Last Quarter

Hourly Weather History & Observations

Time (CST) Temp. Windchill Dew Point Humidity Pressure Visibility Wind Dir Wind Speed Gust Speed Precip Events Conditions
12:57 AM 32.0 °F 21.2 °F 8.1 °F 37% 30.01 in 10.0 mi SW 16.1 mph 21.9 mph N/A   Mostly Cloudy
1:57 AM 34.0 °F 24.2 °F 7.0 °F 32% 29.98 in 10.0 mi SW 15.0 mph 24.2 mph N/A   Overcast
2:57 AM 33.1 °F 23.4 °F 8.1 °F 35% 29.96 in 10.0 mi SW 13.8 mph - N/A   Clear
3:57 AM 35.1 °F 25.2 °F 9.0 °F 34% 29.96 in 10.0 mi WSW 16.1 mph - N/A   Overcast
4:57 AM 35.1 °F 27.4 °F 10.0 °F 35% 29.96 in 10.0 mi WSW 10.4 mph - N/A   Scattered Clouds
5:57 AM 35.1 °F 27.9 °F 10.0 °F 35% 29.98 in 10.0 mi WSW 9.2 mph - N/A   Overcast
6:57 AM 34.0 °F 28.8 °F 10.9 °F 38% 30.00 in 10.0 mi WSW 5.8 mph - N/A   Overcast
7:57 AM 33.1 °F 26.9 °F 12.0 °F 42% 30.02 in 10.0 mi WSW 6.9 mph - N/A   Mostly Cloudy
8:57 AM 37.9 °F 32.1 °F 15.1 °F 39% 30.03 in 10.0 mi West 8.1 mph - N/A   Clear
9:57 AM 44.1 °F 39.0 °F 21.0 °F 40% 30.04 in 10.0 mi WNW 9.2 mph - N/A   Clear
10:57 AM 48.0 °F - 26.1 °F 42% 30.04 in 10.0 mi NNW 10.4 mph - N/A   Clear
11:57 AM 51.1 °F - 28.0 °F 41% 30.02 in 10.0 mi NW 11.5 mph 17.3 mph N/A   Clear
12:57 PM 53.1 °F - 30.9 °F 43% 30.00 in 10.0 mi NW 18.4 mph 27.6 mph N/A   Clear
1:57 PM 54.0 °F - 30.0 °F 40% 29.98 in 10.0 mi WNW 21.9 mph 27.6 mph N/A   Mostly Cloudy
2:57 PM 55.0 °F - 30.0 °F 38% 29.98 in 10.0 mi NNW 17.3 mph 24.2 mph N/A   Mostly Cloudy
3:57 PM 53.1 °F - 30.0 °F 41% 29.99 in 10.0 mi NW 13.8 mph 21.9 mph N/A   Mostly Cloudy
4:57 PM 50.0 °F - 32.0 °F 50% 30.01 in 10.0 mi NNW 13.8 mph - N/A   Scattered Clouds
5:57 PM 46.0 °F 43.1 °F 30.9 °F 56% 30.02 in 10.0 mi NNW 5.8 mph - N/A   Clear
6:57 PM 44.1 °F 40.8 °F 30.0 °F 58% 30.03 in 10.0 mi North 5.8 mph - N/A   Clear
7:57 PM 41.0 °F - 30.9 °F 67% 30.03 in 10.0 mi Calm Calm - N/A   Clear
8:57 PM 37.9 °F - 30.0 °F 73% 30.02 in 9.0 mi Calm Calm - N/A   Clear
9:57 PM 34.0 °F 31.0 °F 28.9 °F 82% 30.00 in 10.0 mi ESE 3.5 mph - N/A   Clear
10:57 PM 34.0 °F 28.0 °F 28.9 °F 82% 29.98 in 10.0 mi SSE 6.9 mph - N/A   Clear
11:57 PM 35.1 °F 29.3 °F 30.0 °F 82% 29.94 in 10.0 mi SSE 6.9 mph - N/A   Clear